Weather in Lukasheve

Ukraine / Zaporizhia Region     47°57′29″N   34°57′35″E
temp.,
°C
wind,
m/s
gust,
m/s
humid.,
%
clouds,
%
prec.,
mm/h
press.,
hPa
HPBL,
m
22 may, sun
sun2200:00+16wsw81684100 0.3 1005448
03:00+14wsw6129691 0.4 1005349
06:00+14w51193100 0.0 1004532
09:00+15wnw81167100 0.0 1003820
12:00+18wnw8115136 0.0 10031907
15:00+16wnw7125990 0.0 10021382
18:00+14wnw5106938 0.3 1002726
21:00+12wnw510835 0.7 1002337
23 may, mon
mon2300:00+9wnw389423 0.0 1003255
03:00+10nw4790100 0.1 1004483
06:00+10n3691100 0.1 1005393
09:00+13ne56657 0.1 10061095
12:00+15ne445581 0.3 10071322
15:00+14n4568100 0.9 1007590
18:00+16ne464432 0.0 10071383
21:00+13nne345793 0.0 100988
24 may, tue
tue2400:00+9ne336992 0.0 101146
03:00+9nne236468 0.0 101174
06:00+8n237391 0.0 101281
09:00+14n44565 0.0 1013838
12:00+16n443995 0.0 10132401
15:00+15nnw554590 0.0 10141618
18:00+16nw354699 0.0 10151386
21:00+12wnw335998 0.0 101624
25 may, wed
wed2500:00+10nnw33695 0.0 101735
03:00+9nw33795 0.0 101826
06:00+9nw34795 0.0 101992
09:00+16nw34575 0.0 1020625
12:00+20nw444473 0.0 10202240
15:00+19nw234799 0.0 10201016
18:00+20wnw134461 0.0 10191329
21:00+17ssw3553100 0.0 102082
26 may, thu
thu2600:00+16ssw5957100 0.0 1019225
03:00+14wsw386291 0.0 1020162
06:00+12sw3765100 0.0 1019160
09:00+18sw795191 0.0 10181025
12:00+16sw61160100 0.0 1018867
15:00+13ssw61385100 1.2 10181081
18:00+15sw71471100 0.0 1015670
21:00+14wsw48820 0.1 1016158